User: anonymous   Login
Location: Mentone
(34.5413°N, 85.5351°W)
Time: 18:57:03
(UTC-05:00)
Language:

Okean O Rocket - Orbit

View from above orbital plane
View from above orbital plane
View from above satellite
View from above satellite

Ground track
Ground track

The orbit data is extracted from the following two-line orbital elements,

1 25861U 99039B   17082.89121247 +.00000069 +00000-0 +16790-4 0  9996
2 25861 098.0956 053.6743 0015722 001.4087 050.8998 14.78395269953062
Epoch (UTC): 23 March 2017 21:23:20
Eccentricity: 0.0015722
inclination: 98.0956°
perigee height: 623 km
apogee height: 645 km
right ascension of ascending node: 53.6743°
argument of perigee: 1.4087°
revolutions per day: 14.78395269
mean anomaly at epoch: 50.8998°
orbit number at epoch: 95306

The dashed part of the orbit path shows where the satellite is in the earth's shadow,  

DLR